Weather in Furmanovka

Kazakhstan     44°16′54″N   72°59′00″E
temp.,
°C
wind,
m/s
gust,
m/s
humid.,
%
clouds,
%
prec.,
mm/h
press.,
hPa
HPBL,
m
16 may, sun
sun1600:00+16ese44380 0.0 102067
03:00+13ese45480 0.0 102077
06:00+12e34520 0.0 102050
09:00+19e68330 0.0 10211073
12:00+24e79220 0.0 10192295
15:00+26ene78200 0.0 10182656
18:00+26ene67180 0.0 10182838
21:00+21ne510260 0.0 1018200
17 may, mon
mon1700:00+18e33290 0.0 101831
03:00+17ese33400 0.0 101726
06:00+15ese22440 0.0 101817
09:00+22ene35280 0.0 1019472
12:00+27e67180 0.0 10172296
15:00+30ene66140 0.0 10152940
18:00+29ene66140 0.0 10143020
21:00+24ene46210 0.0 101577
18 may, tue
tue1800:00+20ese45270 0.0 101466
03:00+18ese44340 0.0 101352
06:00+17ese33370 0.0 101324
09:00+24e34270 0.0 1013409
12:00+30e67150 0.0 10112530
15:00+32ene65130 0.0 10092928
18:00+31ene66130 0.0 10083037
21:00+25ne712280 0.0 1009286
19 may, wed
wed1900:00+22ene48350 0.0 1008124
03:00+20ese44370 0.0 100851
06:00+18se45390 0.0 100855
09:00+25sse44260 0.0 1007404
12:00+30wsw11160 0.0 10062654
15:00+32nnw34132 0.0 10043742
18:00+32nw34122 0.0 10033887
21:00+25sw5103075 0.0 1005216
20 may, thu
thu2000:00+22ene223723 0.0 100628
03:00+19e12452 0.0 100727
06:00+18ene71261100 0.0 1008376
09:00+22ene10114756 0.0 1010827
12:00+28ene883221 0.0 10101553
15:00+28ne119314 0.0 10111745
18:00+27ene1111301 0.0 10111655
21:00+22ene101439100 0.0 1014786